User: anonymous   Login
Location: La Pernelle
(49.6188°N, 1.2999°W)
Time: 23:52:56
(UTC+00:00)
Language:

DNEPR-1 R/B - Orbit

View from above orbital plane
View from above orbital plane
View from above satellite
View from above satellite

Ground track
Ground track

The orbit data is extracted from the following two-line orbital elements,

1 26550U 00057F   21271.49342639 -.00000028  00000-0  29773-4 0  9996
2 26550  64.5646 178.6710 0507210  86.3402 279.5487 13.80819309 58725
Epoch (UTC): 28 September 2021 11:50:32
Eccentricity: 0.0507210
inclination: 64.5646°
perigee height: 589 km
apogee height: 1333 km
right ascension of ascending node: 178.6710°
argument of perigee: 86.3402°
revolutions per day: 13.80819309
mean anomaly at epoch: 279.5487°
orbit number at epoch: 5872

The dashed part of the orbit path shows where the satellite is in the earth's shadow,  

DLR